Flag for Germany Weather past 2 weeks in Garbsen, Lower Saxony, Germany

Now
43 °F

Light rain. Partly cloudy.


Feels Like: 36 °F
Forecast: 36 / 42 °F
Wind: 13 mph from South

Location: Hannover

Current Time: Mar 2, 2015 at 2:09:33 AM

Latest Report: Mar 2, 2015 at 1:20 AM


Visibility: N/A

Pressure: 29.42 "Hg

Humidity: 81%

Dew point: 37 °F

Location of GarbsenLocation

Historic Weather in Garbsen — Graph

°F

Garbsen temperature yesterday

Maximum temperature yesterday: 50 °F (at 1:20 PM)
Minimum temperature yesterday: 39 °F (at 1:20 AM)
Average temperature yesterday: 43 °F

Past Weeks' High & Low Weather Summary

 TemperatureHumidityPressure
High50 °F (Mar 1, 1:20 PM)100% (Feb 15, 3:20 AM)30.72 "Hg (Feb 15, 3:20 AM)
Low27 °F (Feb 15, 4:50 AM)46% (Feb 28, 3:50 PM)29.30 "Hg (Feb 21, 9:20 AM)
Average39 °F81%29.95 "Hg
* Reported Feb 15 12:20 AM — Mar 2 12:50 AM, Garbsen, Weather by CustomWeather, © 2015

Note: Actual official high and low records may vary slightly from our data, if they occured in-between our weather recording intervals... More about our weather records

Advertising

Garbsen weather history for previous 24 hours

 ConditionsComfort  
Time TempWeatherWind HumidityBarometerVisibility
12:50 AM
Mon, Mar 2
43 °FPassing clouds.12 mph81%29.45 "HgN/A
12:20 AM43 °FPassing clouds.10 mph81%29.47 "HgN/A
11:50 PM
Sun, Mar 1
41 °FPassing clouds.9 mph87%29.47 "HgN/A
11:20 PM43 °FPassing clouds.10 mph81%29.50 "HgN/A
10:50 PM43 °FPassing clouds.9 mph81%29.50 "HgN/A
10:20 PM41 °FPassing clouds.10 mph81%29.53 "HgN/A
9:50 PM41 °FClear.6 mph81%29.53 "Hg10 mi
9:20 PM41 °FPassing clouds.6 mph81%29.53 "HgN/A
8:20 PM43 °FPassing clouds.6 mph81%29.56 "HgN/A
7:50 PM43 °FScattered showers. Passing clouds.8 mph81%29.56 "HgN/A
7:20 PM45 °FScattered showers. Partly cloudy.3 mph76%29.56 "HgN/A
6:50 PM43 °FScattered showers. Passing clouds.6 mph81%29.56 "HgN/A
6:20 PM45 °FPartly cloudy.6 mph76%29.53 "HgN/A
5:50 PM46 °FBroken clouds.7 mph71%29.53 "HgN/A
5:20 PM46 °FBroken clouds.6 mph71%29.53 "HgN/A
4:20 PM48 °FScattered showers. Scattered clouds.15 mph66%29.53 "HgN/A
3:50 PM50 °FScattered showers. Scattered clouds.13 mph67%29.53 "HgN/A
3:20 PM48 °FScattered showers. Scattered clouds.12 mph76%29.53 "HgN/A
2:50 PM48 °FSprinkles. Partly sunny.12 mph76%29.50 "HgN/A
2:20 PM48 °FScattered showers. Scattered clouds.8 mph76%29.50 "HgN/A
1:50 PM46 °FSprinkles. Scattered clouds.18 mph82%29.50 "Hg6 mi
1:20 PM50 °FScattered showers. Scattered clouds.18 mph76%29.50 "HgN/A
12:50 PM48 °FBroken clouds.17 mph82%29.50 "HgN/A
12:20 PM48 °FScattered clouds.14 mph82%29.53 "HgN/A
11:50 AM45 °FPartly sunny.14 mph87%29.53 "HgN/A
11:20 AM45 °FLight rain. Partly sunny.14 mph87%29.53 "HgN/A
10:50 AM43 °FLight rain. Partly sunny.14 mph87%29.53 "HgN/A
10:20 AM41 °FDrizzle. Partly sunny.16 mph87%29.53 "HgN/A
9:50 AM41 °FBroken clouds.16 mph87%29.53 "HgN/A
9:20 AM41 °FBroken clouds.15 mph87%29.53 "HgN/A
8:50 AM39 °FBroken clouds.18 mph87%29.53 "HgN/A
8:20 AM39 °FDrizzle. Broken clouds.21 mph87%29.53 "HgN/A
7:50 AM39 °FDrizzle. Broken clouds.20 mph87%29.53 "Hg5 mi
7:20 AM39 °FLight rain. Partly sunny.16 mph87%29.53 "HgN/A
6:50 AM39 °FLight rain. Partly cloudy.18 mph81%29.53 "HgN/A
6:20 AM39 °FRain. Partly cloudy.16 mph81%29.56 "HgN/A
5:50 AM41 °FLight rain. Passing clouds.15 mph70%29.56 "HgN/A
5:20 AM41 °FLight rain. Passing clouds.16 mph66%29.59 "HgN/A
4:50 AM41 °FPartly cloudy.14 mph66%29.59 "HgN/A
4:20 AM41 °FPassing clouds.12 mph61%29.62 "HgN/A
3:50 AM41 °FPassing clouds.18 mph61%29.62 "HgN/A
3:20 AM41 °FPartly cloudy.13 mph61%29.65 "HgN/A
2:50 AM41 °FPassing clouds.12 mph61%29.68 "HgN/A
2:20 AM41 °FClear.12 mph61%29.71 "Hg10 mi
Weather by CustomWeather, © 2015

See weather overviewHow to use our weather pages